IRNSS-1E

Last updated on Mon Feb 16 2026 00:02:49 GMT+0000 (Coordinated Universal Time)

1 41241U 16003A 26045.60117678 -.00000287 00000+0 00000+0 0 9991 2 41241 32.9666 61.5170 0018591 191.2402 220.0196 1.00269911 36850
UTC large
Height (km)
Speed (km/s)
/
Latitude / Longitude
Inclination (degrees)
Orbital Period (minutes)
Azimuth
Elevation
Range (km)
Doppler Factor

Next 0 passes for location: London (51.5072 / 0.1276)

Sorry there are no passes over London.